Date String (YYYY-MM-DD hh:mm:ss) UTC,Instrument flags,Ambient pressure (hPa),Sample flow (lpm),Bypass flow (lpm),Sample temperature (°C),Ambient temperature (°C),ASC tube jacket temperature (°C),LED temperature (°C),Box temperature (°C),Sample RH (%),Span deviation,Mass concentration (μg/m³),Mass concentration (μg/m³),Mass concentration (μg/m³)
DateTimeUTC,F1_M11,P_M11,Q1_M11,Q2_M11,T1_M11,T2_M11,T3_M11,T4_M11,T5_M11,U1_M11,ZSPAN_M11,X0_M11,X2_M11,X1_M11
2022-03-05 07:00:00,,0815.0,4.99,0.00,27.3,26.5,00.0,36.3,29.2,16.8,0000.0,0008.43,0003.15,0001.46
2022-03-05 07:01:00,,0815.0,5.00,0.00,27.3,26.5,00.0,36.3,29.1,16.6,0000.0,0008.49,0003.15,0001.44
2022-03-05 07:02:00,,0814.9,5.01,0.00,27.3,26.5,00.0,36.3,29.1,16.5,0000.0,0009.06,0003.14,0001.44
2022-03-05 07:03:00,,0814.9,5.01,0.00,27.3,26.5,00.0,36.3,29.1,16.6,0000.0,0009.11,0003.16,0001.41
2022-03-05 07:04:00,,0814.9,5.00,0.00,27.3,26.4,00.0,36.3,29.1,16.7,0000.0,0009.21,0003.14,0001.36
2022-03-05 07:05:00,,0815.0,5.00,0.00,27.3,26.4,00.0,36.3,29.0,16.9,0000.0,0009.14,0003.16,0001.35
2022-03-05 07:06:00,,0815.0,4.99,0.00,27.2,26.4,00.0,36.3,29.0,17.1,0000.0,0008.64,0003.10,0001.33
2022-03-05 07:07:00,,0815.0,5.02,0.00,27.2,26.3,00.0,36.3,28.9,17.2,0000.0,0008.15,0003.08,0001.34
2022-03-05 07:08:00,,0815.0,5.01,0.00,27.2,26.3,00.0,36.3,28.9,17.4,0000.0,0007.71,0003.06,0001.35
2022-03-05 07:09:00,,0815.0,4.99,0.00,27.1,26.2,00.0,36.3,28.9,17.4,0000.0,0007.74,0003.05,0001.35
2022-03-05 07:10:00,,0815.0,5.00,0.00,27.1,26.2,00.0,36.3,28.9,17.5,0000.0,0007.78,0003.05,0001.36
2022-03-05 07:11:00,,0815.0,5.00,0.00,27.1,26.2,00.0,36.3,28.8,17.5,0000.0,0007.87,0003.10,0001.36
2022-03-05 07:12:00,,0815.1,5.01,0.00,27.1,26.2,00.0,36.2,28.8,17.6,0000.0,0008.07,0003.06,0001.37
2022-03-05 07:13:00,,0815.1,5.01,0.00,27.1,26.2,00.0,36.2,28.8,17.6,0000.0,0007.39,0003.05,0001.36
2022-03-05 07:14:00,,0815.1,5.00,0.00,27.1,26.1,00.0,36.2,28.8,17.6,0000.0,0007.22,0003.00,0001.35
2022-03-05 07:15:00,,0815.1,4.99,0.00,27.0,26.1,00.0,36.2,28.8,17.8,0000.0,0007.09,0002.98,0001.37
2022-03-05 07:16:00,,0815.1,4.99,0.00,27.0,26.1,00.0,36.2,28.7,17.8,0000.0,0007.08,0002.99,0001.39
2022-03-05 07:17:00,,0815.1,5.02,0.00,27.0,26.1,00.0,36.2,28.7,17.9,0000.0,0007.33,0003.02,0001.40
2022-03-05 07:18:00,,0815.0,5.00,0.00,27.0,26.0,00.0,36.1,28.7,18.0,0000.0,0007.28,0002.98,0001.40
2022-03-05 07:19:00,,0815.1,4.99,0.00,26.9,26.0,00.0,36.1,28.7,18.0,0000.0,0007.12,0002.93,0001.39
2022-03-05 07:20:00,,0815.2,5.00,0.00,26.9,26.0,00.0,36.1,28.7,18.1,0000.0,0007.06,0002.95,0001.38
2022-03-05 07:21:00,,0815.2,5.00,0.00,26.9,26.0,00.0,36.1,28.6,18.1,0000.0,0006.96,0002.92,0001.39
2022-03-05 07:22:00,,0815.3,5.01,0.00,26.9,26.0,00.0,36.1,28.6,18.2,0000.0,0007.07,0003.01,0001.40
2022-03-05 07:23:00,,0815.2,4.99,0.00,26.9,26.0,00.0,36.1,28.6,18.2,0000.0,0006.69,0003.00,0001.41
2022-03-05 07:24:00,,0815.2,5.00,0.00,26.9,26.0,00.0,36.0,28.6,18.3,0000.0,0006.51,0002.99,0001.42
2022-03-05 07:25:00,,0815.2,4.99,0.00,26.8,25.9,00.0,36.0,28.6,18.3,0000.0,0006.70,0002.95,0001.43
2022-03-05 07:26:00,,0815.3,5.01,0.00,26.8,25.9,00.0,36.0,28.6,18.4,0000.0,0007.11,0002.98,0001.43
2022-03-05 07:27:00,,0815.3,4.99,0.00,26.8,25.9,00.0,36.0,28.5,18.4,0000.0,0006.74,0002.91,0001.41
2022-03-05 07:28:00,,0815.3,4.99,0.00,26.8,25.9,00.0,36.0,28.5,18.4,0000.0,0006.47,0002.83,0001.39
2022-03-05 07:29:00,,0815.3,5.01,0.00,26.8,25.9,00.0,35.9,28.5,18.4,0000.0,0006.11,0002.74,0001.38
2022-03-05 07:30:00,,0815.4,4.99,0.00,26.8,25.9,00.0,35.9,28.5,18.4,0000.0,0005.94,0002.67,0001.38
2022-03-05 07:31:00,,0815.7,5.00,0.00,26.8,25.9,00.0,35.9,28.5,18.4,0000.0,0005.72,0002.58,0001.37
2022-03-05 07:32:00,,0815.9,5.02,0.00,26.8,25.9,00.0,35.9,28.5,18.5,0000.0,0005.62,0002.53,0001.34
2022-03-05 07:33:00,,0816.0,4.99,0.00,26.7,25.9,00.0,35.9,28.5,18.5,0000.0,0005.54,0002.49,0001.34
2022-03-05 07:34:00,,0816.1,4.99,0.00,26.7,25.9,00.0,35.9,28.5,18.5,0000.0,0005.76,0002.55,0001.33
2022-03-05 07:35:00,,0816.0,5.00,0.00,26.7,25.9,00.0,35.9,28.5,18.5,0000.0,0005.80,0002.55,0001.33
2022-03-05 07:36:00,,0816.0,5.01,0.00,26.7,25.8,00.0,35.8,28.5,18.5,0000.0,0005.65,0002.59,0001.33
2022-03-05 07:37:00,,0815.5,5.01,0.00,26.7,25.9,00.0,35.8,28.5,18.5,0000.0,0005.04,0002.50,0001.32
2022-03-05 07:38:00,,0815.6,4.99,0.00,26.7,25.9,00.0,35.8,28.5,18.4,0000.0,0005.22,0002.52,0001.30
2022-03-05 07:39:00,,0815.6,5.00,0.00,26.7,25.9,00.0,35.8,28.6,18.5,0000.0,0005.26,0002.51,0001.30
2022-03-05 07:40:00,,0815.7,4.99,0.00,26.7,25.9,00.0,35.8,28.6,18.5,0000.0,0005.26,0002.49,0001.27
2022-03-05 07:41:00,,0815.7,5.01,0.00,26.7,25.9,00.0,35.8,28.6,18.5,0000.0,0005.34,0002.49,0001.25
2022-03-05 07:42:00,,0815.7,5.01,0.00,26.8,25.9,00.0,35.8,28.6,18.5,0000.0,0005.97,0002.46,0001.24
2022-03-05 07:43:00,,0815.7,4.99,0.00,26.7,25.9,00.0,35.8,28.5,18.5,0000.0,0006.15,0002.41,0001.24
2022-03-05 07:44:00,,0815.7,5.00,0.00,26.7,25.9,00.0,35.8,28.5,18.5,0000.0,0005.93,0002.31,0001.22
2022-03-05 07:45:00,,0815.7,5.00,0.00,26.7,25.9,00.0,35.8,28.5,18.6,0000.0,0005.64,0002.20,0001.21
2022-03-05 07:46:00,,0815.7,5.02,0.00,26.7,25.9,00.0,35.8,28.5,18.6,0000.0,0005.59,0002.19,0001.20
2022-03-05 07:47:00,,0815.7,5.00,0.00,26.7,25.9,00.0,35.8,28.5,18.6,0000.0,0005.50,0002.14,0001.19
2022-03-05 07:48:00,,0815.7,5.00,0.00,26.7,25.9,00.0,35.8,28.5,18.6,0000.0,0005.50,0002.17,0001.19
2022-03-05 07:49:00,,0815.7,4.99,0.00,26.7,25.9,00.0,35.8,28.5,18.6,0000.0,0005.57,0002.08,0001.20
2022-03-05 07:50:00,,0815.7,4.99,0.00,26.7,25.9,00.0,35.7,28.5,18.7,0000.0,0005.73,0002.11,0001.20
2022-03-05 07:51:00,,0815.7,5.00,0.00,26.7,25.9,00.0,35.7,28.5,18.7,0000.0,0005.79,0002.18,0001.26
2022-03-05 07:52:00,,0815.7,5.00,0.00,26.7,25.9,00.0,35.7,28.6,18.7,0000.0,0005.89,0002.31,0001.40
2022-03-05 07:53:00,,0815.8,5.00,0.00,26.7,25.9,00.0,35.7,28.5,18.7,0000.0,0005.50,0002.46,0001.53
2022-03-05 07:54:00,,0815.8,5.01,0.00,26.7,25.9,00.0,35.7,28.5,18.7,0000.0,0005.40,0002.58,0001.61
2022-03-05 07:55:00,,0815.8,4.99,0.00,26.7,25.9,00.0,35.7,28.5,18.7,0000.0,0005.43,0002.64,0001.65
2022-03-05 07:56:00,,0815.8,5.00,0.00,26.7,25.9,00.0,35.7,28.5,18.8,0000.0,0005.48,0002.66,0001.69
2022-03-05 07:57:00,,0815.8,5.02,0.00,26.7,25.9,00.0,35.7,28.5,18.8,0000.0,0005.61,0002.68,0001.75
2022-03-05 07:58:00,,0815.8,5.00,0.00,26.7,25.9,00.0,35.7,28.5,18.7,0000.0,0005.67,0002.83,0001.91
2022-03-05 07:59:00,,0815.8,5.00,0.00,26.7,25.9,00.0,35.7,28.5,18.7,0000.0,0005.76,0003.02,0002.13
